{"data":{"norad_id":58116,"epoch":"2026-09-20T21:52:36.851232Z","epoch_age_seconds":104865,"freshness":"FRESH","line1":"1 58116U 23161V   26263.91153763  .00000247  00000+0  18451-4 0  9993","line2":"2 58116  53.1622 337.8496 0001074  83.5585 276.5540 15.34394111164325","mean_motion":15.34394111,"eccentricity":0.0001074,"inclination_deg":53.1622,"raan_deg":337.8496,"arg_perigee_deg":83.5585,"mean_anomaly_deg":276.554,"bstar":1.8451e-5,"rev_number":16432,"period_min":93.848118268749,"perigee_km":461.98603549047,"apogee_km":463.4554517338,"semimajor_km":6840.8577436121,"source":"CELESTRAK","updated_at":"2026-09-21T09:00:33.789956Z"}}